Location: Newark
(34.1333°N, 7.9667°W)
Time: 22:30:37
(UTC+00:00)

Hubble Space Telescope - Visible Passes

Search period start: 06 April 2020 00:00
Search period end: 16 April 2020 00:00
Orbit: 536 x 540 km, 28.5° (Epoch: 05 April)

Date Brightness Start Highest point End Pass type
(mag) Time Alt. Az. Time Alt. Az. Time Alt. Az.
06 Apr 2.7 19:24:58 10° SSW 19:27:20 15° SSE 19:29:44 10° ESE visible
06 Apr 3.0 21:04:22 10° SW 21:05:29 17° SW 21:05:29 17° SW visible
07 Apr 2.4 20:53:35 10° WSW 20:55:44 25° SW 20:55:44 25° SW visible
08 Apr 1.8 20:42:50 10° WSW 20:45:53 33° SSW 20:45:53 33° SSW visible
09 Apr 1.5 20:32:06 10° WSW 20:35:55 37° S 20:35:58 37° S visible
10 Apr 1.5 20:21:24 10° WSW 20:25:13 37° S 20:26:00 34° SSE visible
11 Apr 1.6 20:10:43 10° WSW 20:14:31 36° S 20:16:00 27° SE visible
12 Apr 1.7 20:00:03 10° WSW 20:03:49 35° S 20:05:57 21° SE visible
13 Apr 1.8 19:49:24 10° WSW 19:53:06 33° S 19:55:55 15° SE visible
13 Apr 3.6 21:31:10 10° WSW 21:31:14 10° WSW 21:31:14 10° WSW visible
14 Apr 2.0 19:38:46 10° WSW 19:42:24 30° S 19:45:52 11° SE visible
14 Apr 3.5 21:20:56 10° SW 21:21:12 11° SW 21:21:12 11° SW visible
15 Apr 2.2 19:28:10 10° WSW 19:31:41 27° SSW 19:35:11 10° SE visible
15 Apr 3.5 21:11:07 10° SW 21:11:09 10° SW 21:11:09 10° SW visible
